Date String (YYYY-MM-DD hh:mm:ss) UTC,Instrument flags,Ambient pressure (hPa),Sample flow (lpm),Bypass flow (lpm),Sample temperature (°C),Ambient temperature (°C),ASC tube jacket temperature (°C),LED temperature (°C),Box temperature (°C),Sample RH (%),Span deviation,Mass concentration (μg/m³),Mass concentration (μg/m³),Mass concentration (μg/m³)
DateTimeUTC,F1_M11,P_M11,Q1_M11,Q2_M11,T1_M11,T2_M11,T3_M11,T4_M11,T5_M11,U1_M11,ZSPAN_M11,X0_M11,X2_M11,X1_M11
2023-05-07 22:00:00,,0827.5,5.01,0.00,30.5,25.6,00.0,38.8,31.7,13.3,0000.0,0009.27,0003.35,0002.22
2023-05-07 22:01:00,,0827.6,5.01,0.00,30.4,25.9,00.0,38.8,31.5,13.1,0000.0,0008.91,0003.29,0002.22
2023-05-07 22:02:00,,0827.6,4.99,0.00,30.3,26.4,00.0,38.8,31.5,13.5,0000.0,0009.08,0003.30,0002.23
2023-05-07 22:03:00,,0827.7,4.99,0.00,30.3,26.8,00.0,38.7,31.5,13.6,0000.0,0008.93,0003.31,0002.23
2023-05-07 22:04:00,,0827.7,5.00,0.00,30.3,27.2,00.0,38.7,31.6,13.3,0000.0,0008.48,0003.34,0002.23
2023-05-07 22:05:00,,0827.7,5.00,0.00,30.3,27.6,00.0,38.7,31.6,13.3,0000.0,0007.59,0003.35,0002.23
2023-05-07 22:06:00,,0827.7,4.99,0.00,30.3,27.9,00.0,38.7,31.7,13.4,0000.0,0007.78,0003.36,0002.23
2023-05-07 22:07:00,,0827.7,5.00,0.00,30.3,28.1,00.0,38.7,31.7,13.5,0000.0,0008.89,0003.35,0002.22
2023-05-07 22:08:00,,0827.7,5.01,0.00,30.3,28.3,00.0,38.7,31.8,13.6,0000.0,0009.21,0003.34,0002.22
2023-05-07 22:09:00,,0827.6,5.00,0.00,30.3,28.5,00.0,38.7,31.8,13.6,0000.0,0009.33,0003.35,0002.23
2023-05-07 22:10:00,,0827.6,4.99,0.00,30.3,28.6,00.0,38.7,31.9,13.8,0000.0,0009.22,0003.32,0002.24
2023-05-07 22:11:00,,0827.5,5.00,0.00,30.3,28.7,00.0,38.7,31.9,14.0,0000.0,0009.31,0003.29,0002.24
2023-05-07 22:12:00,,0827.7,5.01,0.00,30.3,28.8,00.0,38.7,31.9,13.9,0000.0,0009.53,0003.35,0002.28
2023-05-07 22:13:00,,0828.0,4.99,0.00,30.4,28.9,00.0,38.7,32.0,14.0,0000.0,0009.38,0003.37,0002.31
2023-05-07 22:14:00,,0827.5,5.00,0.00,30.4,29.0,00.0,38.7,32.0,14.1,0000.0,0009.35,0003.38,0002.35
2023-05-07 22:15:00,,0827.6,4.99,0.00,30.4,29.1,00.0,38.7,32.0,13.9,0000.0,0009.33,0003.40,0002.37
2023-05-07 22:16:00,,0827.6,5.00,0.00,30.4,29.1,00.0,38.7,32.0,14.0,0000.0,0009.46,0003.41,0002.39
2023-05-07 22:17:00,,0827.6,5.00,0.00,30.5,29.2,00.0,38.7,32.1,14.1,0000.0,0009.20,0003.41,0002.41
2023-05-07 22:18:00,,0827.6,4.99,0.00,30.5,29.2,00.0,38.8,32.1,14.1,0000.0,0008.57,0003.42,0002.43
2023-05-07 22:19:00,,0827.6,5.00,0.00,30.5,29.3,00.0,38.8,32.1,14.1,0000.0,0008.19,0003.43,0002.45
2023-05-07 22:20:00,,0827.6,5.01,0.00,30.5,29.3,00.0,38.8,32.1,14.2,0000.0,0008.06,0003.44,0002.46
2023-05-07 22:21:00,,0827.6,5.00,0.00,30.6,29.3,00.0,38.8,32.2,14.0,0000.0,0008.10,0003.45,0002.50
2023-05-07 22:22:00,,0827.7,4.99,0.00,30.6,29.3,00.0,38.8,32.2,13.9,0000.0,0008.04,0003.48,0002.55
2023-05-07 22:23:00,,0827.7,4.99,0.00,30.6,29.4,00.0,38.9,32.2,13.9,0000.0,0007.98,0003.49,0002.57
2023-05-07 22:24:00,,0827.6,5.00,0.00,30.6,29.4,00.0,38.9,32.2,14.2,0000.0,0007.98,0003.45,0002.56
2023-05-07 22:25:00,,0827.6,5.01,0.00,30.7,29.4,00.0,38.9,32.2,13.9,0000.0,0008.64,0003.45,0002.55
2023-05-07 22:26:00,,0827.6,5.00,0.00,30.7,29.4,00.0,38.9,32.2,14.0,0000.0,0008.86,0003.48,0002.56
2023-05-07 22:27:00,,0827.7,5.00,0.00,30.7,29.5,00.0,38.9,32.3,14.1,0000.0,0009.72,0003.49,0002.59
2023-05-07 22:28:00,,0827.7,5.00,0.00,30.7,29.5,00.0,39.0,32.3,14.2,0000.0,0010.23,0003.54,0002.61
2023-05-07 22:29:00,,0827.7,4.99,0.00,30.8,29.5,00.0,39.0,32.3,14.2,0000.0,0009.76,0003.57,0002.63
2023-05-07 22:30:00,,0827.7,5.00,0.00,30.8,29.5,00.0,39.0,32.3,13.7,0000.0,0009.93,0003.59,0002.63
2023-05-07 22:31:00,,0827.7,5.00,0.00,30.8,29.6,00.0,39.0,32.4,13.7,0000.0,0009.95,0003.60,0002.66
2023-05-07 22:32:00,,0827.7,5.00,0.00,30.8,29.6,00.0,39.1,32.4,13.7,0000.0,0009.99,0003.60,0002.66
2023-05-07 22:33:00,,0827.7,5.00,0.00,30.8,29.6,00.0,39.1,32.4,13.8,0000.0,0010.84,0003.64,0002.63
2023-05-07 22:34:00,,0827.7,5.02,0.00,30.8,29.6,00.0,39.1,32.4,13.7,0000.0,0010.80,0003.64,0002.60
2023-05-07 22:35:00,,0827.8,5.01,0.00,30.9,29.6,00.0,39.1,32.4,13.6,0000.0,0010.88,0003.67,0002.60
2023-05-07 22:36:00,,0827.8,5.00,0.00,30.9,29.6,00.0,39.1,32.5,13.7,0000.0,0010.84,0003.67,0002.59
2023-05-07 22:37:00,,0827.8,5.00,0.00,30.9,29.6,00.0,39.1,32.5,13.5,0000.0,0010.43,0003.64,0002.58
2023-05-07 22:38:00,,0827.9,5.00,0.00,30.9,29.7,00.0,39.2,32.5,13.5,0000.0,0010.44,0003.60,0002.58
2023-05-07 22:39:00,,0827.8,5.00,0.00,30.9,29.7,00.0,39.2,32.5,13.4,0000.0,0009.58,0003.57,0002.55
2023-05-07 22:40:00,,0827.9,5.00,0.00,30.9,29.5,00.0,39.2,32.5,13.5,0000.0,0009.55,0003.56,0002.55
2023-05-07 22:41:00,,0827.9,4.99,0.00,30.9,27.7,00.0,39.1,32.3,13.6,0000.0,0009.29,0003.52,0002.53
2023-05-07 22:42:00,,0827.8,5.00,0.00,30.8,25.6,00.0,39.0,31.9,13.8,0000.0,0009.43,0003.55,0002.51
2023-05-07 22:43:00,,0827.9,5.01,0.00,30.7,25.4,00.0,38.9,31.7,14.1,0000.0,0009.48,0003.55,0002.49
2023-05-07 22:44:00,,0828.0,5.00,0.00,30.5,25.7,00.0,38.9,31.5,14.1,0000.0,0008.60,0003.50,0002.46
2023-05-07 22:45:00,,0828.0,5.00,0.00,30.4,26.1,00.0,38.9,31.5,14.1,0000.0,0008.53,0003.47,0002.45
2023-05-07 22:46:00,,0828.1,5.00,0.00,30.4,26.6,00.0,38.9,31.6,14.0,0000.0,0008.89,0003.46,0002.46
2023-05-07 22:47:00,,0828.1,5.00,0.00,30.3,27.0,00.0,38.8,31.6,14.0,0000.0,0009.14,0003.50,0002.46
2023-05-07 22:48:00,,0828.0,5.00,0.00,30.3,27.4,00.0,38.8,31.7,14.0,0000.0,0009.35,0003.55,0002.49
2023-05-07 22:49:00,,0828.1,5.00,0.00,30.3,27.7,00.0,38.8,31.7,14.0,0000.0,0009.04,0003.57,0002.50
2023-05-07 22:50:00,,0828.1,5.00,0.00,30.3,28.0,00.0,38.8,31.8,14.3,0000.0,0008.78,0003.57,0002.50
2023-05-07 22:51:00,,0828.1,4.99,0.00,30.3,28.2,00.0,38.8,31.8,14.2,0000.0,0008.76,0003.54,0002.48
2023-05-07 22:52:00,,0828.1,4.99,0.00,30.3,28.4,00.0,38.8,31.9,14.1,0000.0,0008.73,0003.53,0002.48
2023-05-07 22:53:00,,0828.1,5.01,0.00,30.4,28.6,00.0,38.8,31.9,14.1,0000.0,0008.51,0003.48,0002.47
2023-05-07 22:54:00,,0828.1,5.00,0.00,30.4,28.7,00.0,38.8,31.9,14.2,0000.0,0008.56,0003.47,0002.46
2023-05-07 22:55:00,,0828.1,4.99,0.00,30.4,28.8,00.0,38.8,31.9,14.2,0000.0,0008.97,0003.48,0002.46
2023-05-07 22:56:00,,0828.0,4.99,0.00,30.4,28.9,00.0,38.8,32.0,14.2,0000.0,0008.92,0003.48,0002.46
2023-05-07 22:57:00,,0828.0,5.00,0.00,30.4,29.0,00.0,38.8,32.0,14.1,0000.0,0008.65,0003.47,0002.43
2023-05-07 22:58:00,,0828.1,5.00,0.00,30.5,29.1,00.0,38.8,32.0,13.9,0000.0,0008.13,0003.45,0002.45
2023-05-07 22:59:00,,0828.1,5.02,0.00,30.5,29.1,00.0,38.8,32.1,13.9,0000.0,0008.03,0003.46,0002.46
